MST,Max TemperatureF,Mean TemperatureF,Min TemperatureF,Max Dew PointF,MeanDew PointF,Min DewpointF,Max Humidity, Mean Humidity, Min Humidity, Max Sea Level PressureIn, Mean Sea Level PressureIn, Min Sea Level PressureIn, Max VisibilityMiles, Mean VisibilityMiles, Min VisibilityMiles, Max Wind SpeedMPH, Mean Wind SpeedMPH, Max Gust SpeedMPH,PrecipitationIn, CloudCover, Events, WindDirDegrees
2014-1-1,35,24,12,20,16,10,88,66,44,30.46,30.36,30.16,10,10,10,13,3,18,0.00,4,,287
2014-1-2,43,27,11,26,18,9,88,66,44,30.40,30.23,29.89,10,10,10,14,3,22,0.00,4,,290
2014-1-3,45,33,21,30,20,8,92,64,35,30.01,29.78,29.59,10,6,0,33,12,51,0.03,6,Snow,289
2014-1-4,23,20,16,18,11,4,92,72,51,30.29,30.14,29.90,10,9,2,22,7,28,T,8,Snow,304
2014-1-5,16,2,-13,12,-4,-16,88,77,66,30.79,30.45,30.10,10,5,0,18,5,25,0.02,6,Fog-Snow,20
2014-1-6,17,3,-11,10,-1,-13,86,74,61,30.78,30.59,30.32,10,10,7,7,1,9,0.00,1,,153
2014-1-7,30,20,10,21,16,8,92,78,63,30.29,30.19,30.10,10,10,9,9,2,10,0.00,7,,139
2014-1-8,37,29,20,24,20,18,92,72,51,30.10,30.01,29.85,10,10,9,15,3,21,T,7,,207
2014-1-9,32,27,22,26,20,9,88,67,46,29.90,29.76,29.66,10,8,1,22,7,28,0.01,6,Snow,310
2014-1-10,37,31,25,21,18,11,69,58,47,29.98,29.84,29.73,10,10,10,21,7,33,0.00,8,,257
2014-1-11,45,34,23,31,25,16,88,69,49,29.91,29.59,29.42,10,7,0,29,8,43,0.04,5,Fog-Rain-Snow,268
2014-1-12,33,29,25,21,17,13,75,61,47,30.02,29.76,29.45,10,9,2,25,11,36,T,6,Snow,265
2014-1-13,41,37,33,23,21,19,64,54,44,30.30,30.08,29.96,10,10,10,43,18,61,T,5,,292
2014-1-14,40,33,26,25,22,20,81,65,48,30.54,30.46,30.31,10,10,10,23,10,31,0.00,5,,307
2014-1-15,46,32,18,20,15,12,75,52,28,30.50,30.42,30.30,10,10,10,21,6,29,0.00,0,,316
2014-1-16,43,29,14,18,14,11,80,55,30,30.56,30.49,30.43,10,10,10,18,5,24,0.00,1,,180
2014-1-17,46,28,9,21,13,5,84,56,28,30.44,30.39,30.29,10,10,9,13,2,16,0.00,0,,263
2014-1-18,47,29,10,24,16,8,92,65,37,30.49,30.38,30.27,10,10,10,8,1,9,0.00,0,,160
2014-1-19,47,30,12,23,15,10,88,57,25,30.26,30.18,30.09,10,10,10,12,4,14,0.00,1,,339
2014-1-20,43,27,11,21,16,10,88,62,36,30.57,30.47,30.24,10,10,10,10,3,12,0.00,0,,144
2014-1-21,44,26,8,19,13,5,91,62,33,30.59,30.46,30.35,10,10,10,9,2,10,0.00,0,,150
2014-1-22,35,27,18,28,24,14,92,74,56,30.44,30.25,30.10,10,8,2,12,4,15,T,7,Snow,297
2014-1-23,36,25,13,25,18,10,92,70,47,30.61,30.49,30.33,10,10,10,8,2,10,0.00,4,,331
2014-1-24,42,27,11,20,16,8,88,62,36,30.64,30.56,30.46,10,10,10,10,2,12,0.00,0,,327
2014-1-25,47,29,11,23,16,8,92,65,37,30.50,30.38,30.23,10,10,10,9,2,13,0.00,0,,94
2014-1-26,31,22,13,25,14,8,92,75,57,30.40,30.24,30.13,10,8,1,24,4,32,0.01,7,Snow,123
2014-1-27,27,13,-2,11,4,-7,92,59,26,30.53,30.39,30.29,10,10,10,18,4,24,0.00,3,,146
2014-1-28,34,14,-7,19,0,-11,82,53,24,30.53,30.37,30.12,10,10,10,9,3,13,0.00,2,,340
2014-1-29,39,34,28,30,25,19,89,74,59,30.07,29.70,29.55,10,9,2,20,4,29,T,7,Snow,312
2014-1-30,29,14,-1,27,11,-5,87,80,73,30.01,29.72,29.53,10,4,0,16,3,22,0.11,8,Fog-Snow,328
2014-1-31,28,12,-5,19,6,-8,91,77,62,30.03,29.87,29.71,10,6,1,20,4,23,0.01,7,Snow,348